ISR887 LLBG-UGSB

Flight info

Callsign ISR887
Flight time N/A
Altitude 34000
Route DAFNA DCT VELOX N71 DESPO/N0440F360 N71 ALSUS DCT VESAR UB545 EVKIT/N0440F350 UT284 INPOR/N0444F370 UT284 SIV UW706 TBN UG67 IFEMU G67 SARPI
Aircraft A320/M-SDE3FGHIRWY/LB1

Departure

Time 2026-05-07 11:13
Airport Ben Gurion International Airport (LLBG)

Arrival

Time N/A
Airport Alexander Kartveli Batumi International Airport (UGSB)
Time Latitude Longitude Altitude Speed Heading
2026-05-07 10:41 32.00166 34.87503 117 ft 0 kts 261°
2026-05-07 10:59 32.00166 34.87507 120 ft 3 kts 260°
2026-05-07 10:59 32.00172 34.87538 134 ft 4 kts 256°
2026-05-07 11:00 32.00175 34.87567 116 ft 3 kts 290°
2026-05-07 11:00 32.00164 34.87592 116 ft 4 kts 326°
2026-05-07 11:00 32.00142 34.87597 116 ft 4 kts 21°
2026-05-07 11:00 32.00119 34.87583 115 ft 4 kts 19°
2026-05-07 11:01 32.00105 34.87576 120 ft 0 kts 31°
2026-05-07 11:05 32.00111 34.87580 115 ft 5 kts 31°
2026-05-07 11:06 32.00170 34.87622 118 ft 12 kts 31°
2026-05-07 11:06 32.00246 34.87675 116 ft 14 kts 28°
2026-05-07 11:06 32.00337 34.87733 119 ft 16 kts 28°
2026-05-07 11:06 32.00434 34.87807 118 ft 17 kts 31°
2026-05-07 11:07 32.00544 34.87888 118 ft 19 kts 31°
2026-05-07 11:07 32.00588 34.87920 120 ft 1 kts 31°
2026-05-07 11:07 32.00613 34.87937 116 ft 8 kts 31°
2026-05-07 11:07 32.00645 34.87960 118 ft 3 kts 31°
2026-05-07 11:08 32.00675 34.87981 118 ft 12 kts 30°
2026-05-07 11:08 32.00756 34.88038 117 ft 14 kts 31°
2026-05-07 11:08 32.00845 34.88103 118 ft 16 kts 32°
2026-05-07 11:09 32.00963 34.88190 117 ft 27 kts 31°
2026-05-07 11:09 32.01111 34.88295 119 ft 22 kts 31°
2026-05-07 11:09 32.01217 34.88374 117 ft 18 kts 33°
2026-05-07 11:09 32.01322 34.88473 117 ft 20 kts 43°
2026-05-07 11:10 32.01389 34.88556 117 ft 22 kts 52°
2026-05-07 11:10 32.01465 34.88727 118 ft 16 kts 69°
2026-05-07 11:10 32.01498 34.88856 120 ft 18 kts 78°
2026-05-07 11:10 32.01524 34.89020 120 ft 22 kts 80°
2026-05-07 11:11 32.01550 34.89190 118 ft 16 kts 79°
2026-05-07 11:11 32.01598 34.89268 119 ft 12 kts 13°
2026-05-07 11:11 32.01689 34.89254 116 ft 15 kts 349°
2026-05-07 11:11 32.01764 34.89188 114 ft 14 kts 278°
2026-05-07 11:12 32.01742 34.89095 116 ft 0 kts 260°
2026-05-07 11:12 32.01738 34.89060 118 ft 23 kts 262°
2026-05-07 11:12 32.01672 34.88601 118 ft 87 kts 261°
2026-05-07 11:12 32.01590 34.88037 118 ft 121 kts 258°
2026-05-07 11:13 32.01411 34.86889 119 ft 163 kts 260°
2026-05-07 11:13 32.01227 34.85539 558 ft 166 kts 266°
2026-05-07 11:13 32.01024 34.84170 1020 ft 172 kts 263°
2026-05-07 11:13 32.00700 34.82760 1491 ft 181 kts 259°
2026-05-07 11:14 32.00370 34.81317 1833 ft 191 kts 262°
2026-05-07 11:14 32.00028 34.79710 2065 ft 214 kts 262°
2026-05-07 11:14 31.99657 34.77927 2411 ft 237 kts 260°
2026-05-07 11:14 31.99271 34.75955 2801 ft 258 kts 266°
2026-05-07 11:15 31.99461 34.73837 3470 ft 261 kts 291°
2026-05-07 11:15 32.00084 34.71810 4260 ft 267 kts 292°
2026-05-07 11:15 32.00733 34.69744 5106 ft 270 kts 291°
2026-05-07 11:15 32.01389 34.67661 5961 ft 272 kts 290°
2026-05-07 11:16 32.02247 34.65650 6739 ft 277 kts 308°
2026-05-07 11:16 32.03685 34.64155 7485 ft 280 kts 324°
2026-05-07 11:16 32.05296 34.62848 8304 ft 281 kts 324°
2026-05-07 11:16 32.06915 34.61550 9080 ft 284 kts 324°
2026-05-07 11:17 32.08555 34.60237 9888 ft 285 kts 324°
2026-05-07 11:17 32.10219 34.58900 10396 ft 297 kts 324°
2026-05-07 11:17 32.11988 34.57471 10560 ft 320 kts 324°
2026-05-07 11:17 32.13861 34.55952 10961 ft 331 kts 324°
2026-05-07 11:18 32.15775 34.54399 11533 ft 336 kts 324°
2026-05-07 11:18 32.17712 34.52831 12145 ft 340 kts 324°
2026-05-07 11:18 32.19674 34.51244 12784 ft 344 kts 324°
2026-05-07 11:18 32.21652 34.49642 13471 ft 345 kts 323°
2026-05-07 11:19 32.23634 34.48032 14106 ft 347 kts 323°
2026-05-07 11:19 32.25657 34.46388 14676 ft 350 kts 324°
2026-05-07 11:19 32.27669 34.44753 15297 ft 351 kts 324°
2026-05-07 11:19 32.29680 34.43117 15912 ft 352 kts 324°
2026-05-07 11:20 32.31706 34.41471 16490 ft 354 kts 324°
2026-05-07 11:20 32.33739 34.39817 17044 ft 357 kts 324°
2026-05-07 11:20 32.35768 34.38164 17599 ft 359 kts 324°
2026-05-07 11:20 32.37834 34.36480 18169 ft 362 kts 324°
2026-05-07 11:21 32.39944 34.34762 18710 ft 364 kts 324°
2026-05-07 11:21 32.42008 34.33081 19228 ft 366 kts 324°
2026-05-07 11:21 32.44139 34.31343 19773 ft 368 kts 324°
2026-05-07 11:21 32.46254 34.29617 20313 ft 371 kts 324°
2026-05-07 11:22 32.48358 34.27899 20831 ft 373 kts 324°
2026-05-07 11:22 32.50526 34.26124 21357 ft 375 kts 323°
2026-05-07 11:22 32.52694 34.24460 21844 ft 378 kts 330°
2026-05-07 11:22 32.55129 34.23236 22337 ft 384 kts 340°
2026-05-07 11:23 32.57795 34.22589 22819 ft 390 kts 351°
2026-05-07 11:23 32.60513 34.22288 23309 ft 393 kts 351°
2026-05-07 11:23 32.63198 34.21989 23762 ft 395 kts 351°
2026-05-07 11:23 32.65946 34.21680 24148 ft 397 kts 351°
2026-05-07 11:24 32.68703 34.21366 24536 ft 399 kts 351°
2026-05-07 11:24 32.71477 34.21050 24914 ft 401 kts 351°
2026-05-07 11:24 32.74261 34.20730 25276 ft 404 kts 351°
2026-05-07 11:24 32.77066 34.20408 25626 ft 406 kts 350°
2026-05-07 11:25 32.79887 34.20081 25972 ft 408 kts 350°
2026-05-07 11:25 32.82760 34.19750 26322 ft 411 kts 350°
2026-05-07 11:25 32.85613 34.19424 26678 ft 413 kts 350°
2026-05-07 11:25 32.88446 34.19104 27015 ft 415 kts 350°
2026-05-07 11:26 32.91367 34.18771 27347 ft 418 kts 350°
2026-05-07 11:26 32.94230 34.18444 27671 ft 420 kts 350°
2026-05-07 11:26 32.97144 34.18112 28002 ft 422 kts 350°
2026-05-07 11:26 33.00076 34.17775 28320 ft 424 kts 349°
2026-05-07 11:27 33.03023 34.17437 28638 ft 426 kts 349°
2026-05-07 11:27 33.05983 34.17099 28966 ft 429 kts 349°
2026-05-07 11:27 33.08958 34.16759 29304 ft 430 kts 349°
2026-05-07 11:27 33.11946 34.16417 29627 ft 432 kts 349°
2026-05-07 11:28 33.14940 34.16074 29987 ft 433 kts 349°
2026-05-07 11:28 33.17976 34.15729 30417 ft 431 kts 349°
2026-05-07 11:28 33.20957 34.15389 30807 ft 430 kts 349°
2026-05-07 11:28 33.23936 34.15048 31205 ft 429 kts 349°
2026-05-07 11:29 33.26897 34.14706 31602 ft 427 kts 349°
2026-05-07 11:29 33.29854 34.14362 32004 ft 426 kts 349°
2026-05-07 11:29 33.32803 34.14020 32403 ft 425 kts 349°
2026-05-07 11:29 33.35704 34.13685 32812 ft 424 kts 349°
2026-05-07 11:30 33.38634 34.13348 33208 ft 422 kts 349°
2026-05-07 11:30 33.41591 34.13008 33623 ft 421 kts 349°
2026-05-07 11:30 33.44504 34.12670 34011 ft 420 kts 349°
2026-05-07 11:30 33.47377 34.12333 34119 ft 421 kts 349°
2026-05-07 11:31 33.53217 34.11643 34134 ft 422 kts 349°
2026-05-07 11:31 33.59066 34.10963 34133 ft 422 kts 349°
2026-05-07 11:32 33.67874 34.09946 34136 ft 422 kts 349°
2026-05-07 11:33 33.73722 34.09264 34134 ft 422 kts 349°
2026-05-07 11:33 33.79586 34.08736 34150 ft 427 kts 356°
2026-05-07 11:34 33.85480 34.10109 34143 ft 440 kts 16°
2026-05-07 11:34 33.91178 34.12806 34140 ft 440 kts 16°
2026-05-07 11:35 33.96887 34.15489 34155 ft 441 kts 16°
2026-05-07 11:35 34.02680 34.17694 34150 ft 429 kts 360°
2026-05-07 11:36 34.08555 34.17439 34149 ft 422 kts 351°
2026-05-07 11:36 34.14364 34.16943 34150 ft 423 kts 351°
2026-05-07 11:37 34.20269 34.16433 34153 ft 423 kts 351°
2026-05-07 11:37 34.26139 34.15926 34151 ft 423 kts 351°
2026-05-07 11:38 34.32024 34.15424 34152 ft 423 kts 351°
2026-05-07 11:38 34.37895 34.14939 34169 ft 423 kts 351°
2026-05-07 11:39 34.43769 34.14440 34166 ft 423 kts 351°
2026-05-07 11:39 34.49599 34.13939 34163 ft 422 kts 351°
2026-05-07 11:40 34.55478 34.13440 34155 ft 422 kts 351°
2026-05-07 11:40 34.61313 34.12939 34169 ft 422 kts 351°
2026-05-07 11:41 34.67235 34.12429 34162 ft 422 kts 351°
2026-05-07 11:41 34.73034 34.11939 34162 ft 421 kts 351°
2026-05-07 11:42 34.78926 34.11436 34159 ft 421 kts 351°
2026-05-07 11:42 34.84780 34.10933 34179 ft 421 kts 351°
2026-05-07 11:43 34.90606 34.10428 34172 ft 419 kts 351°
2026-05-07 11:43 34.96402 34.09926 34168 ft 419 kts 351°
2026-05-07 11:44 35.02241 34.09416 34163 ft 419 kts 350°
2026-05-07 11:44 35.08047 34.08906 34176 ft 418 kts 350°
2026-05-07 11:45 35.13852 34.08406 34164 ft 418 kts 351°
2026-05-07 11:45 35.19615 34.07917 34161 ft 418 kts 351°
2026-05-07 11:46 35.25413 34.07415 34177 ft 418 kts 350°
2026-05-07 11:46 35.31219 34.06910 34166 ft 418 kts 350°
2026-05-07 11:47 35.36042 34.06489 34162 ft 417 kts 350°
2026-05-07 11:47 35.41871 34.05987 34166 ft 417 kts 350°
2026-05-07 11:48 35.47654 34.05474 34166 ft 416 kts 350°
2026-05-07 11:48 35.53425 34.04960 34161 ft 416 kts 350°
2026-05-07 11:49 35.59202 34.04460 34167 ft 416 kts 350°
2026-05-07 11:49 35.64930 34.03958 34168 ft 416 kts 350°
2026-05-07 11:50 35.70711 34.03453 34179 ft 416 kts 350°
2026-05-07 11:50 35.76464 34.02942 34174 ft 415 kts 350°
2026-05-07 11:51 35.82271 34.02432 34172 ft 415 kts 350°
2026-05-07 11:51 35.88004 34.01913 34169 ft 413 kts 348°
2026-05-07 11:52 35.93406 34.00076 34175 ft 401 kts 330°
2026-05-07 11:52 35.98207 33.96576 34170 ft 398 kts 325°
2026-05-07 11:53 36.02916 33.93020 34172 ft 398 kts 326°
2026-05-07 11:53 36.07646 33.89464 34174 ft 397 kts 326°
2026-05-07 11:54 36.12347 33.85913 34167 ft 397 kts 326°
2026-05-07 11:54 36.17052 33.82341 34194 ft 397 kts 326°
2026-05-07 11:55 36.21863 33.79002 34180 ft 399 kts 337°
2026-05-07 11:55 36.24576 33.78198 34179 ft 404 kts 350°
2026-05-07 11:55 36.27401 33.78236 34176 ft 413 kts
2026-05-07 11:55 36.30193 33.79183 34175 ft 422 kts 18°
2026-05-07 11:56 36.32773 33.81005 34169 ft 431 kts 28°
2026-05-07 11:56 36.37734 33.85190 34166 ft 431 kts 28°
2026-05-07 11:57 36.42740 33.89402 34160 ft 432 kts 28°
2026-05-07 11:57 36.47701 33.93579 34170 ft 432 kts 28°
2026-05-07 11:58 36.52658 33.97769 34159 ft 432 kts 27°
2026-05-07 11:58 36.57634 34.01983 34173 ft 433 kts 28°
2026-05-07 11:59 36.62589 34.06172 34174 ft 432 kts 28°
2026-05-07 11:59 36.67566 34.10389 34176 ft 432 kts 28°
2026-05-07 12:00 36.72528 34.14600 34185 ft 432 kts 28°
2026-05-07 12:00 36.77483 34.18814 34181 ft 432 kts 28°
2026-05-07 12:01 36.82459 34.23055 34190 ft 432 kts 28°
2026-05-07 12:01 36.87426 34.27288 34199 ft 432 kts 28°
2026-05-07 12:02 36.92385 34.31527 34190 ft 432 kts 28°
2026-05-07 12:02 36.97342 34.35779 34177 ft 432 kts 28°
2026-05-07 12:03 37.02328 34.40049 34200 ft 432 kts 28°
2026-05-07 12:03 37.07272 34.44305 34190 ft 431 kts 28°
2026-05-07 12:04 37.12167 34.48522 34201 ft 430 kts 28°
2026-05-07 12:04 37.17143 34.52818 34210 ft 430 kts 28°
2026-05-07 12:05 37.22063 34.57068 34197 ft 429 kts 28°
2026-05-07 12:05 37.26947 34.61283 34194 ft 428 kts 28°
2026-05-07 12:06 37.31887 34.65555 34180 ft 428 kts 28°
2026-05-07 12:06 37.36787 34.69812 34177 ft 428 kts 28°
2026-05-07 12:07 37.41681 34.74060 34183 ft 428 kts 28°
2026-05-07 12:07 37.46620 34.78353 34168 ft 428 kts 28°
2026-05-07 12:08 37.51485 34.82600 34182 ft 428 kts 28°
2026-05-07 12:08 37.56421 34.86909 34171 ft 429 kts 28°
2026-05-07 12:09 37.61328 34.91194 34171 ft 428 kts 28°
2026-05-07 12:09 37.66215 34.95483 34181 ft 428 kts 28°
2026-05-07 12:10 37.71095 34.99766 34184 ft 427 kts 28°
2026-05-07 12:10 37.75972 35.04051 34176 ft 428 kts 28°
2026-05-07 12:11 37.80856 35.08344 34188 ft 428 kts 28°
2026-05-07 12:11 37.85748 35.12659 34196 ft 428 kts 28°
2026-05-07 12:12 37.90616 35.16965 34184 ft 427 kts 28°